"Pseudo-MPEC" for C27JGY2

Created 2020 Feb 28 8:07:06 UT using Find_Orb

Click here for an explanation of pseudo-MPECs

 
 Astrometry: 
     C27JGY2  C2020 02 18.30340 10 40 31.39 -07 55 47.4    ~2I87       VNEOCPG96
     C27JGY2  C2020 02 18.31136 10 40 31.82 -07 56 11.0    ~2I87 21.4 GVNEOCPG96
     C27JGY2  C2020 02 18.31651 10 40 32.12 -07 56 26.3    ~2I87 21.6 GVNEOCPG96
     C27JGY2  C2020 02 18.32164 10 40 32.40 -07 56 42.9    ~2I87       VNEOCPG96
     C27JGY2  C2020 02 18.43901 10 40 39.77 -08 02 36.3    ~2IB7 21.3 GVNEOCPG96
     C27JGY2  C2020 02 18.44146 10 40 39.93 -08 02 43.3    ~2IB7 21.9 GVNEOCPG96
     C27JGY2  C2020 02 18.44398 10 40 40.00 -08 02 51.2    ~2IB7       VNEOCPG96

Station data:
(G96) Mt. Lemmon Survey  (N32.442754 W110.788720)  US/Arizona.  Observers T.
   A. Pruyne, B. M. Africano, E. J. Christensen, G. A. Farneth, D. C. Fuls,
   A. R. Gibbs, A. D. Grauer, H. Gröller, J. A. Johnson, R. A. Kowalski, S.
   M. Larson, G. J. Leonard, D. Rankin, R. L. Seaman, F. C. Shelly. 1.5-m
   reflector + 10K CCD.

Orbital elements:  C27JGY2
   Perihelion 2020 Feb 26.051289 +/- 33.7 TT =  1:13:51 (JD 2458905.551289)
Epoch 2020 Feb 18.0 TT = JDT 2458897.5   Earth MOID: 0.2304   Ju: 0.5317
M 358.41278233 +/- 23               Ma: 0.0936                AutoNEOCP
n   0.19713832 +/- 0.125            Peri.  209.70633 +/- 80
a   2.92385168 +/- 1.23             Node   309.50433 +/- 44
e   0.5861769 +/- 0.118             Incl.    7.71133 +/- 1.7
P   5.00                   H 23.6   G  0.15   U 11.3  SR
q 1.20995720 +/- 0.0902    Q 4.63774616 +/- 0.833
From 7 observations 2020 Feb. 18 (3.4 hr); mean residual 0".50
Residuals in arcseconds: 
200218 G96  .91+  .26-    200218 G96  .80-  .54-    200218 G96  .83-  .10-    
200218 G96  .00   .25+    200218 G96  .46+  .12-    
200218 G96  .27-  .54+    200218 G96  .52+  .24+    

Ephemerides (geocentric):
Date (UTC) HH   RA              Dec         delta   r     elong  mag " sig PA
---- -- -- --  -------------   -----------  ------ ------ -----  --- ---- ---
2020 02 28 08  10 52 42.820   -15 52 31.91  .23679 1.2103 155.8 21.9 392'  52
2020 02 28 09  10 52 45.820   -15 54 20.85  .23681 1.2103 155.7 21.9 398'  52
2020 02 28 10  10 52 48.819   -15 56 09.69  .23683 1.2103 155.7 21.9 404'  52
2020 02 28 11  10 52 51.819   -15 57 58.42  .23684 1.2103 155.7 21.9 410'  52
2020 02 28 12  10 52 54.818   -15 59 47.05  .23686 1.2103 155.7 21.9 416'  52
2020 02 28 13  10 52 57.817   -16 01 35.57  .23688 1.2103 155.7 21.9 423'  52
2020 02 28 14  10 53 00.816   -16 03 23.99  .23690 1.2103 155.7 21.9 429'  52
2020 02 28 15  10 53 03.815   -16 05 12.30  .23692 1.2103 155.7 21.9 436'  52
2020 02 28 16  10 53 06.814   -16 07 00.51  .23694 1.2104 155.7 21.9 443'  51
2020 02 28 17  10 53 09.812   -16 08 48.61  .23697 1.2104 155.7 21.9 450'  51
2020 02 28 18  10 53 12.811   -16 10 36.60  .23699 1.2104 155.6 21.9 457'  51
2020 02 28 19  10 53 15.809   -16 12 24.49  .23701 1.2104 155.6 21.9 464'  51
2020 02 28 20  10 53 18.808   -16 14 12.27  .23703 1.2104 155.6 21.9 471'  51
2020 02 28 21  10 53 21.806   -16 15 59.94  .23705 1.2104 155.6 21.9 478'  51
2020 02 28 22  10 53 24.804   -16 17 47.51  .23707 1.2104 155.6 21.9 486'  51
2020 02 28 23  10 53 27.803   -16 19 34.97  .23709 1.2105 155.6 21.9 494'  51
2020 02 29 00  10 53 30.801   -16 21 22.32  .23712 1.2105 155.6 21.9 501'  50
2020 02 29 01  10 53 33.799   -16 23 09.57  .23714 1.2105 155.6 21.9 509'  50
2020 02 29 02  10 53 36.797   -16 24 56.70  .23716 1.2105 155.5 21.9 517'  50
2020 02 29 03  10 53 39.794   -16 26 43.73  .23718 1.2105 155.5 21.9 526'  50
2020 02 29 04  10 53 42.792   -16 28 30.65  .23721 1.2105 155.5 21.9 534'  50
2020 02 29 05  10 53 45.790   -16 30 17.47  .23723 1.2105 155.5 21.9 542'  50
2020 02 29 06  10 53 48.788   -16 32 04.17  .23725 1.2106 155.5 21.9 551'  49
2020 02 29 07  10 53 51.785   -16 33 50.76  .23728 1.2106 155.5 21.9 560'  49
2020 02 29 08  10 53 54.783   -16 35 37.25  .23730 1.2106 155.5 21.9 569'  49
2020 02 29 09  10 53 57.780   -16 37 23.63  .23733 1.2106 155.5 21.9 578'  49
2020 02 29 10  10 54 00.778   -16 39 09.89  .23735 1.2106 155.5 21.9 587'  49
2020 02 29 11  10 54 03.775   -16 40 56.05  .23738 1.2106 155.4 21.9 597'  49
2020 02 29 12  10 54 06.772   -16 42 42.10  .23740 1.2107 155.4 21.9 606'  48
2020 02 29 13  10 54 09.770   -16 44 28.03  .23743 1.2107 155.4 21.9 616'  48
2020 02 29 14  10 54 12.767   -16 46 13.86  .23745 1.2107 155.4 21.9 626'  48
2020 02 29 15  10 54 15.764   -16 47 59.58  .23748 1.2107 155.4 21.9 636'  48
2020 02 29 16  10 54 18.761   -16 49 45.18  .23750 1.2107 155.4 21.9 646'  47
2020 02 29 17  10 54 21.759   -16 51 30.68  .23753 1.2107 155.4 21.9 657'  47
2020 02 29 18  10 54 24.756   -16 53 16.06  .23755 1.2108 155.4 21.9 668'  47
2020 02 29 19  10 54 27.753   -16 55 01.33  .23758 1.2108 155.4 21.9 679'  47
2020 02 29 20  10 54 30.750   -16 56 46.49  .23761 1.2108 155.3 21.9 690'  46
2020 02 29 21  10 54 33.747   -16 58 31.54  .23763 1.2108 155.3 21.9 701'  46
2020 02 29 22  10 54 36.744   -17 00 16.48  .23766 1.2108 155.3 21.9 713'  46
2020 02 29 23  10 54 39.741   -17 02 01.31  .23769 1.2109 155.3 21.9 724'  46
2020 03 01 00  10 54 42.738   -17 03 46.02  .23772 1.2109 155.3 21.9 736'  45
2020 03 01 01  10 54 45.735   -17 05 30.62  .23774 1.2109 155.3 21.9 749'  45
2020 03 01 02  10 54 48.731   -17 07 15.11  .23777 1.2109 155.3 21.9 761'  45
2020 03 01 03  10 54 51.728   -17 08 59.48  .23780 1.2109 155.3 21.9 774'  44
2020 03 01 04  10 54 54.725   -17 10 43.75  .23783 1.2110 155.2 21.9 787'  44
2020 03 01 05  10 54 57.722   -17 12 27.89  .23786 1.2110 155.2 21.9 800'  44
2020 03 01 06  10 55 00.719   -17 14 11.93  .23789 1.2110 155.2 21.9 813'  44
2020 03 01 07  10 55 03.716   -17 15 55.85  .23792 1.2110 155.2 21.9 827'  43